FW6259 Weather Reports


Display with metric or nautical units.
time (UTC)temp
F
wind
direction
speed
MPH
gust
MPH
rain 1hr
in
rain 24hr
in
rain mn
in
humidity
%
barometer
mb
20260508064557 38 113 1.0 4.0 0.00 0.00 0.00 66 1017.1
20260508063053 39 129 0.0 7.0 0.00 0.00 0.00 65 1017.1
20260508061548 39 212 1.0 6.0 0.00 0.00 0.00 64 1017.2
20260508060058 39 150 1.0 3.0 0.00 0.00 0.00 63 1017.3
20260508054638 40 111 0.0 6.0 0.00 0.00 0.00 62 1017.2
20260508053148 40 176 3.0 11.0 0.00 0.00 0.00 61 1017.3
20260508051502 41 226 2.0 8.0 0.00 0.00 0.00 61 1017.3
20260508050057 42 223 3.0 7.0 0.00 0.00 0.00 61 1017.3
20260508044559 42 124 4.0 14.0 0.00 0.00 0.00 60 1017.4
20260508043059 42 217 5.0 9.0 0.00 0.00 0.00 60 1017.5
20260508041601 43 245 2.0 12.0 0.00 0.00 0.00 59 1017.6
20260508040054 43 239 3.0 11.0 0.00 0.00 0.00 57 1017.4
20260508034506 43 220 4.0 18.0 0.00 0.00 0.00 55 1017.5
20260508033100 43 199 5.0 10.0 0.00 0.00 0.00 55 1017.6
20260508031601 44 258 4.0 14.0 0.00 0.00 0.00 55 1017.8
20260508030106 44 248 7.0 15.0 0.00 0.00 0.00 55 1017.8
20260508024505 44 229 5.0 14.0 0.00 0.00 0.00 53 1017.9
20260508023052 45 186 6.0 13.0 0.00 0.00 0.00 53 1017.9
20260508021609 45 152 7.0 16.0 0.00 0.00 0.00 53 1017.9
20260508020041 45 188 9.0 15.0 0.00 0.00 0.00 53 1017.9
20260508014506 46 209 4.0 13.0 0.00 0.00 0.00 54 1017.9
20260508013111 46 264 6.0 14.0 0.00 0.00 0.00 51 1018.0
20260508011601 47 290 3.0 16.0 0.00 0.00 0.00 51 1018.2
20260508010044 46 120 7.0 18.0 0.00 0.00 0.00 51 1018.1
20260508004504 46 132 7.0 21.0 0.00 0.00 0.00 50 1018.3
20260508003101 47 214 6.0 16.0 0.00 0.00 0.00 50 1018.4
20260508001549 47 148 8.0 17.0 0.00 0.00 0.00 50 1018.2
20260508000003 48 170 7.0 16.0 0.00 0.00 0.00 51 1018.5
20260507234554 48 139 6.0 15.0 0.00 0.00 0.00 52 1018.5
20260507233045 47 87 6.0 20.0 0.00 0.00 0.00 51 1018.5
20260507231502 47 214 7.0 20.0 0.00 0.00 0.00 52 1018.8
20260507230050 47 147 7.0 16.0 0.00 0.00 0.00 53 1018.9
20260507224601 48 248 7.0 20.0 0.00 0.00 0.00 52 1019.0
20260507223004 47 259 8.0 22.0 0.00 0.00 0.00 53 1019.0
20260507221555 48 127 11.0 20.0 0.00 0.00 0.00 53 1018.9
20260507220048 46 151 8.0 18.0 0.00 0.00 0.00 54 1018.9
20260507214506 47 173 13.0 22.0 0.00 0.00 0.00 53 1019.0
20260507213055 46 150 9.0 18.0 0.00 0.00 0.00 53 1019.1
20260507211553 47 179 9.0 22.0 0.00 0.00 0.00 54 1018.9
20260507210107 46 184 7.0 21.0 0.00 0.00 0.00 55 1019.0
20260507204502 47 96 6.0 23.0 0.00 0.00 0.00 55 1019.0
20260507203056 46 180 8.0 18.0 0.00 0.00 0.00 55 1019.2
20260507201547 47 117 5.0 15.0 0.00 0.00 0.00 54 1019.0
20260507200110 46 212 8.0 18.0 0.00 0.00 0.00 53 1019.0
20260507194556 46 183 8.0 19.0 0.00 0.00 0.00 55 1019.0
20260507193107 46 210 8.0 17.0 0.00 0.00 0.00 54 1019.1
20260507191515 47 158 10.0 22.0 0.00 0.00 0.00 52 1019.4
20260507190056 46 219 5.0 19.0 0.00 0.00 0.00 56 1019.2
20260507184550 46 210 11.0 21.0 0.00 0.00 0.00 55 1019.3
20260507183003 45 120 9.0 22.0 0.00 0.00 0.00 56 1019.2
20260507181555 44 162 7.0 19.0 0.00 0.00 0.00 56 1019.2
20260507180048 44 193 11.0 21.0 0.00 0.00 0.00 56 1019.5
20260507174502 45 153 7.0 20.0 0.00 0.00 0.00 57 1019.3
20260507173128 45 160 6.0 16.0 0.00 0.00 0.00 57 1019.4
20260507171551 43 179 9.0 21.0 0.00 0.00 0.00 58 1019.3
20260507170002 44 175 8.0 16.0 0.00 0.00 0.00 58 1019.3
20260507164607 43 177 7.0 20.0 0.00 0.00 0.00 60 1019.4
20260507163049 42 224 5.0 17.0 0.00 0.00 0.00 62 1019.2
20260507161559 42 125 4.0 17.0 0.00 0.00 0.00 62 1019.2
20260507160115 41 237 3.0 10.0 0.00 0.00 0.00 63 1019.3
20260507154555 41 99 4.0 12.0 0.00 0.00 0.00 63 1019.3
20260507153045 41 216 3.0 11.0 0.00 0.00 0.00 64 1019.3
20260507151600 41 243 3.0 10.0 0.00 0.00 0.00 65 1019.3
20260507150057 40 259 3.0 11.0 0.00 0.00 0.00 66 1019.2
20260507144558 40 233 4.0 11.0 0.00 0.00 0.00 67 1019.3
20260507143111 39 240 3.0 7.0 0.00 0.00 0.00 69 1019.1
20260507141613 38 226 2.0 6.0 0.00 0.00 0.00 71 1019.2
20260507140056 38 181 3.0 9.0 0.00 0.00 0.00 71 1019.4
20260507134550 38 212 2.0 7.0 0.00 0.00 0.00 71 1019.3
20260507133106 38 165 4.0 9.0 0.00 0.00 0.00 71 1019.3
20260507131551 38 165 3.0 13.0 0.00 0.00 0.00 71 1019.1
20260507130044 38 258 3.0 8.0 0.00 0.00 0.00 71 1019.1
20260507124548 38 109 2.0 8.0 0.00 0.00 0.00 72 1019.3
20260507123057 38 207 2.0 12.0 0.00 0.00 0.00 72 1019.3
20260507121557 38 225 1.0 8.0 0.00 0.00 0.00 73 1019.3
20260507120047 38 123 2.0 7.0 0.00 0.00 0.00 73 1019.4
20260507114502 38 186 1.0 10.0 0.00 0.00 0.00 72 1019.3
20260507113054 38 146 5.0 11.0 0.00 0.00 0.00 71 1019.2
20260507111557 39 195 4.0 13.0 0.00 0.00 0.00 71 1019.3
20260507104555 39 243 5.0 13.0 0.00 0.00 0.00 71 1019.3
20260507103046 39 193 6.0 14.0 0.00 0.00 0.00 72 1019.2
20260507101502 39 212 4.0 11.0 0.00 0.00 0.00 72 1019.0
20260507100051 39 144 6.0 13.0 0.00 0.00 0.00 71 1019.0
20260507094548 39 186 5.0 13.0 0.00 0.00 0.00 71 1018.9
20260507093045 39 229 6.0 13.0 0.00 0.00 0.00 70 1018.8
20260507091556 39 197 5.0 12.0 0.00 0.00 0.00 70 1018.6
20260507090052 39 193 5.0 13.0 0.00 0.00 0.00 71 1018.6
20260507084511 40 160 9.0 18.0 0.00 0.00 0.00 71 1018.4
20260507083056 40 134 6.0 14.0 0.00 0.00 0.00 71 1018.4
20260507081554 40 201 4.0 19.0 0.00 0.00 0.00 71 1018.3
20260507080003 40 178 3.0 14.0 0.00 0.00 0.00 71 1018.2
20260507074558 40 164 5.0 17.0 0.00 0.00 0.00 70 1018.1
20260507073049 40 177 6.0 14.0 0.00 0.00 0.00 71 1018.0
20260507071545 39 130 6.0 14.0 0.00 0.00 0.00 71 1018.0
20260507070057 39 195 5.0 15.0 0.00 0.00 0.00 72 1017.9